Location: Country View Observatory
(32.9873°N, 83.6444°W)
Time: 13:35:51
(UTC-04:00)

LightSail 2 - Visible Passes

Search period start: 17 October 2019 00:00
Search period end: 27 October 2019 00:00
Orbit: 707 x 722 km, 24.0° (Epoch: 17 October)

Date Brightness Start Highest point End Pass type
(mag) Time Alt. Az. Time Alt. Az. Time Alt. Az.
17 Oct 6.5 19:34:58 10° WSW 19:39:27 30° S 19:43:57 10° ESE visible
17 Oct 7.1 21:20:35 10° WSW 21:23:27 20° SSW 21:23:27 20° SSW visible
18 Oct 6.8 20:22:54 10° WSW 20:27:04 25° S 20:29:29 18° SSE visible
19 Oct 6.7 19:25:17 10° WSW 19:29:37 27° S 19:33:59 10° SE visible
19 Oct 7.3 21:11:30 10° SW 21:14:34 16° SSW 21:14:34 16° SSW visible
20 Oct 7.2 20:13:32 10° WSW 20:17:12 19° SSW 20:20:41 11° SSE visible
21 Oct 7.1 19:15:44 10° WSW 19:19:44 23° SSW 19:23:45 10° SE visible
21 Oct 7.7 21:03:44 10° SSW 21:04:39 10° SSW 21:05:34 10° SSW visible
22 Oct 7.6 20:04:40 10° SW 20:07:14 14° SSW 20:09:47 10° S visible
